Tracking 25710 objects as of 6-Jul-2022
HD Live streaming from Space Station
objects crossing your sky now

FENGYUN 1C DEB

Track FENGYUN 1C DEB now!
10-day predictions


NORAD ID: 30492
Int'l Code: 1999-025AHE
Perigee: 734.3 km
Apogee: 986.5 km
Inclination: 102.3 °
Period: 102.0 minutes
Semi major axis: 7231 km
RCS: 0.0164 m2 (small)
Launch date: May 10, 1999
Source: People's Republic of China (PRC)
Launch site: Taiyaun Space Center, China (TSC)

Note: This is SATELLITE DEBRIS
aabbcc
Your satellite tracking list
Your tracking list is empty




NASA's NSSDC Master Catalog

Two Line Element Set (TLE):
1 30492U 99025AHE 22186.53625740  .00001422  00000-0  71097-3 0  9990
2 30492 102.3469  37.3566 0174380  20.5824  33.7266 14.11788995789744
Source of the keplerian elements: AFSPC